Location: New Columbia
(37.3106°N, 88.7753°W)
Time: 17:35:32
(UTC+00:00)

Daily predictions for brighter satellites

Satellite Brightness Start Highest point End
(mag) Time Altitude Azimuth Time Altitude Azimuth Time Altitude Azimuth
Cosmos 2084 4.5 12:02:04 10° WSW 12:05:59 29° NW 12:09:55 10° NNE
Cosmos 1606 3.7 12:02:53 10° S 12:06:35 51° E 12:10:16 10° NNE
Cosmos 1400 Rocket 3.1 12:03:25 10° SSW 12:07:14 44° WNW 12:11:09 10° N
Cosmos 2016 Rocket 4.1 12:05:12 10° NNW 12:11:17 55° W 12:17:24 10° SSW
SMAP 3.3 12:08:18 10° NNE 12:12:59 77° ESE 12:17:37 10° S
